User: anonymous   Login
Location: Peebles
(55.6412°N, 3.1714°W)
Time: 19:29:34
(UTC+00:00)
Language:

deb Agena D - Orbit

View from above orbital plane
View from above orbital plane
View from above satellite
View from above satellite

Ground track
Ground track

The orbit data is extracted from the following two-line orbital elements,

1  4611U 70025P   22332.14500022  .00000184  00000-0  14409-3 0  9996
2  4611  99.8198 213.5436 0128033  12.6535 347.7792 14.01636447674283
Epoch (UTC): 28 November 2022 03:28:48
Eccentricity: 0.0128033
inclination: 99.8198°
perigee height: 795 km
apogee height: 981 km
right ascension of ascending node: 213.5436°
argument of perigee: 12.6535°
revolutions per day: 14.01636447
mean anomaly at epoch: 347.7792°
orbit number at epoch: 67428

The dashed part of the orbit path shows where the satellite is in the earth's shadow,  

DLR